Wetterdaten: Sonntag, 06.12.2015
Datum Zeit Temp. A. Feuchte A. Luftdruck Regen Wind Richtung Richtung Sonnenschein ET UV Solar Taupunkt Windchill Windben Empfang
06.12.2015 00:00 0,7 C 98 % 1030,3 hPa 0,0 l/m 0,0 km/h (0 Bft) O 95 0 min 0,000 mm 0,0 UV-I 0 W/m 0,4 C 0,7 C 0,0 km/h (0 Bft) 99,15 %
06.12.2015 00:05 1,0 C 98 % 1030,3 hPa 0,0 l/m 0,0 km/h (0 Bft) O 95 0 min 0,000 mm 0,0 UV-I 0 W/m 0,7 C 1,0 C 0,0 km/h (0 Bft) 99,10 %
06.12.2015 00:10 1,1 C 98 % 1030,3 hPa 0,0 l/m 1,3 km/h (1 Bft) O 95 0 min 0,000 mm 0,0 UV-I 0 W/m 0,8 C 1,1 C 3,2 km/h (1 Bft) 99,11 %
06.12.2015 00:15 1,1 C 98 % 1030,3 hPa 0,0 l/m 1,9 km/h (1 Bft) O 95 0 min 0,000 mm 0,0 UV-I 0 W/m 0,8 C 1,1 C 3,2 km/h (1 Bft) 97,52 %
06.12.2015 00:20 1,1 C 98 % 1030,3 hPa 0,0 l/m 1,6 km/h (1 Bft) O 95 0 min 0,000 mm 0,0 UV-I 0 W/m 0,8 C 1,1 C 3,2 km/h (1 Bft) 99,17 %
06.12.2015 00:25 1,2 C 98 % 1030,4 hPa 0,0 l/m 0,2 km/h (0 Bft) O 95 0 min 0,000 mm 0,0 UV-I 0 W/m 0,9 C 1,2 C 1,6 km/h (1 Bft) 98,31 %
06.12.2015 00:30 1,1 C 98 % 1030,4 hPa 0,0 l/m 0,4 km/h (0 Bft) O 95 0 min 0,000 mm 0,0 UV-I 0 W/m 0,8 C 1,1 C 3,2 km/h (1 Bft) 98,31 %
06.12.2015 00:35 1,1 C 98 % 1030,4 hPa 0,0 l/m 0,0 km/h (0 Bft) O 95 0 min 0,000 mm 0,0 UV-I 0 W/m 0,8 C 1,1 C 0,0 km/h (0 Bft) 99,15 %
06.12.2015 00:40 1,0 C 98 % 1030,4 hPa 0,0 l/m 0,9 km/h (0 Bft) O 95 0 min 0,000 mm 0,0 UV-I 0 W/m 0,7 C 1,0 C 3,2 km/h (1 Bft) 100,00 %
06.12.2015 00:45 1,0 C 98 % 1030,4 hPa 0,0 l/m 2,6 km/h (1 Bft) O-SO 122 0 min 0,000 mm 0,0 UV-I 0 W/m 0,7 C 1,0 C 3,2 km/h (1 Bft) 98,33 %
06.12.2015 00:50 1,3 C 98 % 1030,5 hPa 0,0 l/m 3,0 km/h (1 Bft) S-SO 154 0 min 0,000 mm 0,0 UV-I 0 W/m 1,0 C 1,3 C 4,8 km/h (1 Bft) 98,21 %
06.12.2015 00:55 1,5 C 98 % 1030,5 hPa 0,0 l/m 3,0 km/h (1 Bft) S-SO 154 0 min 0,000 mm 0,0 UV-I 0 W/m 1,2 C 1,5 C 4,8 km/h (1 Bft) 100,00 %
06.12.2015 01:00 1,6 C 98 % 1030,5 hPa 0,0 l/m 1,5 km/h (1 Bft) S-SO 154 0 min 0,000 mm 0,0 UV-I 0 W/m 1,3 C 1,6 C 3,2 km/h (1 Bft) 100,00 %
06.12.2015 01:05 1,7 C 98 % 1030,5 hPa 0,0 l/m 0,8 km/h (0 Bft) S-SO 153 0 min 0,000 mm 0,0 UV-I 0 W/m 1,4 C 1,7 C 3,2 km/h (1 Bft) 99,19 %
06.12.2015 01:10 1,8 C 98 % 1030,6 hPa 0,0 l/m 0,8 km/h (0 Bft) S-SO 153 0 min 0,000 mm 0,0 UV-I 0 W/m 1,5 C 1,8 C 3,2 km/h (1 Bft) 99,08 %
06.12.2015 01:15 1,8 C 98 % 1030,6 hPa 0,0 l/m 0,0 km/h (0 Bft) S-SO 153 0 min 0,000 mm 0,0 UV-I 0 W/m 1,5 C 1,8 C 0,0 km/h (0 Bft) 97,44 %
06.12.2015 01:20 1,9 C 98 % 1030,6 hPa 0,0 l/m 0,4 km/h (0 Bft) S-SO 153 0 min 0,000 mm 0,0 UV-I 0 W/m 1,6 C 1,9 C 3,2 km/h (1 Bft) 99,15 %
06.12.2015 01:25 1,7 C 98 % 1030,7 hPa 0,0 l/m 2,0 km/h (1 Bft) S-SO 153 0 min 0,000 mm 0,0 UV-I 0 W/m 1,4 C 1,7 C 3,2 km/h (1 Bft) 99,15 %
06.12.2015 01:30 1,6 C 98 % 1030,7 hPa 0,0 l/m 2,3 km/h (1 Bft) S-SO 153 0 min 0,000 mm 0,0 UV-I 0 W/m 1,3 C 1,6 C 4,8 km/h (1 Bft) 98,29 %
06.12.2015 01:35 1,6 C 98 % 1030,7 hPa 0,0 l/m 1,4 km/h (1 Bft) S-SO 153 0 min 0,000 mm 0,0 UV-I 0 W/m 1,3 C 1,6 C 3,2 km/h (1 Bft) 99,15 %
06.12.2015 01:40 1,5 C 98 % 1030,7 hPa 0,0 l/m 1,6 km/h (1 Bft) S-SO 154 0 min 0,000 mm 0,0 UV-I 0 W/m 1,2 C 1,5 C 4,8 km/h (1 Bft) 95,93 %
06.12.2015 01:45 1,6 C 98 % 1030,7 hPa 0,0 l/m 2,1 km/h (1 Bft) S-SO 154 0 min 0,000 mm 0,0 UV-I 0 W/m 1,3 C 1,6 C 3,2 km/h (1 Bft) 94,92 %
06.12.2015 01:50 1,8 C 98 % 1030,7 hPa 0,0 l/m 1,6 km/h (1 Bft) S-SO 157 0 min 0,000 mm 0,0 UV-I 0 W/m 1,5 C 1,8 C 3,2 km/h (1 Bft) 94,50 %
06.12.2015 01:55 1,8 C 98 % 1030,8 hPa 0,0 l/m 3,6 km/h (1 Bft) S-SO 167 0 min 0,000 mm 0,0 UV-I 0 W/m 1,5 C 1,8 C 6,4 km/h (2 Bft) 96,58 %
06.12.2015 02:00 1,7 C 98 % 1030,9 hPa 0,0 l/m 3,0 km/h (1 Bft) S 177 0 min 0,000 mm 0,0 UV-I 0 W/m 1,4 C 1,7 C 4,8 km/h (1 Bft) 97,46 %
06.12.2015 02:05 1,8 C 98 % 1031,0 hPa 0,0 l/m 2,5 km/h (1 Bft) S 173 0 min 0,000 mm 0,0 UV-I 0 W/m 1,5 C 1,8 C 4,8 km/h (1 Bft) 95,73 %
06.12.2015 02:10 1,9 C 98 % 1030,9 hPa 0,0 l/m 2,5 km/h (1 Bft) S-SO 163 0 min 0,000 mm 0,0 UV-I 0 W/m 1,6 C 1,9 C 4,8 km/h (1 Bft) 98,31 %
06.12.2015 02:15 2,3 C 98 % 1031,0 hPa 0,0 l/m 4,0 km/h (1 Bft) S 175 0 min 0,000 mm 0,0 UV-I 0 W/m 2,0 C 2,3 C 6,4 km/h (2 Bft) 98,31 %
06.12.2015 02:20 2,3 C 98 % 1031,0 hPa 0,0 l/m 3,0 km/h (1 Bft) S 178 0 min 0,000 mm 0,0 UV-I 0 W/m 2,0 C 2,3 C 6,4 km/h (2 Bft) 99,15 %
06.12.2015 02:25 2,2 C 98 % 1031,0 hPa 0,0 l/m 3,8 km/h (1 Bft) S 180 0 min 0,000 mm 0,0 UV-I 0 W/m 1,9 C 2,2 C 6,4 km/h (2 Bft) 99,17 %
06.12.2015 02:30 2,2 C 98 % 1031,1 hPa 0,0 l/m 4,6 km/h (1 Bft) S 191 0 min 0,000 mm 0,0 UV-I 0 W/m 1,9 C 2,2 C 6,4 km/h (2 Bft) 100,00 %
06.12.2015 02:35 2,2 C 98 % 1031,1 hPa 0,0 l/m 3,7 km/h (1 Bft) S-SW 198 0 min 0,000 mm 0,0 UV-I 0 W/m 1,9 C 2,2 C 6,4 km/h (2 Bft) 99,15 %
06.12.2015 02:40 2,2 C 98 % 1031,1 hPa 0,0 l/m 3,1 km/h (1 Bft) S 190 0 min 0,000 mm 0,0 UV-I 0 W/m 1,9 C 2,2 C 4,8 km/h (1 Bft) 99,08 %
06.12.2015 02:45 2,2 C 98 % 1031,1 hPa 0,0 l/m 2,9 km/h (1 Bft) S-SW 199 0 min 0,000 mm 0,0 UV-I 0 W/m 1,9 C 2,2 C 4,8 km/h (1 Bft) 99,15 %
06.12.2015 02:50 2,1 C 98 % 1031,1 hPa 0,0 l/m 2,3 km/h (1 Bft) S-SW 208 0 min 0,000 mm 0,0 UV-I 0 W/m 1,8 C 2,1 C 4,8 km/h (1 Bft) 100,00 %
06.12.2015 02:55 2,1 C 98 % 1031,1 hPa 0,0 l/m 3,0 km/h (1 Bft) S-SW 209 0 min 0,000 mm 0,0 UV-I 0 W/m 1,8 C 2,1 C 4,8 km/h (1 Bft) 100,00 %
06.12.2015 03:00 2,1 C 99 % 1031,2 hPa 0,0 l/m 3,4 km/h (1 Bft) S 187 0 min 0,000 mm 0,0 UV-I 0 W/m 2,0 C 2,1 C 4,8 km/h (1 Bft) 98,10 %
06.12.2015 03:05 2,2 C 98 % 1031,1 hPa 0,0 l/m 2,7 km/h (1 Bft) S 179 0 min 0,000 mm 0,0 UV-I 0 W/m 1,9 C 2,2 C 6,4 km/h (2 Bft) 98,36 %
06.12.2015 03:10 2,2 C 98 % 1031,1 hPa 0,0 l/m 2,0 km/h (1 Bft) S 179 0 min 0,000 mm 0,0 UV-I 0 W/m 1,9 C 2,2 C 3,2 km/h (1 Bft) 100,00 %
06.12.2015 03:15 2,2 C 98 % 1031,0 hPa 0,0 l/m 2,5 km/h (1 Bft) S-SW 202 0 min 0,000 mm 0,0 UV-I 0 W/m 1,9 C 2,2 C 4,8 km/h (1 Bft) 97,46 %
06.12.2015 03:20 2,2 C 98 % 1031,1 hPa 0,0 l/m 2,7 km/h (1 Bft) S-SW 202 0 min 0,000 mm 0,0 UV-I 0 W/m 1,9 C 2,2 C 6,4 km/h (2 Bft) 99,15 %
06.12.2015 03:25 2,1 C 99 % 1031,1 hPa 0,0 l/m 3,9 km/h (1 Bft) S 187 0 min 0,000 mm 0,0 UV-I 0 W/m 2,0 C 2,1 C 8,0 km/h (2 Bft) 99,17 %
06.12.2015 03:30 2,1 C 99 % 1031,0 hPa 0,0 l/m 1,8 km/h (1 Bft) S 183 0 min 0,000 mm 0,0 UV-I 0 W/m 2,0 C 2,1 C 3,2 km/h (1 Bft) 98,31 %
06.12.2015 03:35 1,9 C 98 % 1030,9 hPa 0,0 l/m 3,6 km/h (1 Bft) S 175 0 min 0,000 mm 0,0 UV-I 0 W/m 1,6 C 1,9 C 8,0 km/h (2 Bft) 98,31 %
06.12.2015 03:40 1,8 C 98 % 1031,0 hPa 0,0 l/m 2,4 km/h (1 Bft) S 180 0 min 0,000 mm 0,0 UV-I 0 W/m 1,5 C 1,8 C 6,4 km/h (2 Bft) 96,58 %
06.12.2015 03:45 1,7 C 98 % 1031,0 hPa 0,0 l/m 1,5 km/h (1 Bft) S 180 0 min 0,000 mm 0,0 UV-I 0 W/m 1,4 C 1,7 C 3,2 km/h (1 Bft) 96,61 %
06.12.2015 03:50 1,4 C 98 % 1030,9 hPa 0,0 l/m 1,0 km/h (0 Bft) S 180 0 min 0,000 mm 0,0 UV-I 0 W/m 1,1 C 1,4 C 3,2 km/h (1 Bft) 96,58 %
06.12.2015 03:55 1,3 C 98 % 1030,9 hPa 0,0 l/m 0,8 km/h (0 Bft) S 180 0 min 0,000 mm 0,0 UV-I 0 W/m 1,0 C 1,3 C 3,2 km/h (1 Bft) 95,41 %
06.12.2015 04:00 1,2 C 98 % 1030,9 hPa 0,0 l/m 1,0 km/h (0 Bft) S 180 0 min 0,000 mm 0,0 UV-I 0 W/m 0,9 C 1,2 C 3,2 km/h (1 Bft) 97,46 %
06.12.2015 04:05 1,2 C 98 % 1030,8 hPa 0,0 l/m 0,5 km/h (0 Bft) S 180 0 min 0,000 mm 0,0 UV-I 0 W/m 0,9 C 1,2 C 1,6 km/h (1 Bft) 97,17 %
06.12.2015 04:10 1,2 C 98 % 1030,7 hPa 0,0 l/m 0,4 km/h (0 Bft) S 180 0 min 0,000 mm 0,0 UV-I 0 W/m 0,9 C 1,2 C 3,2 km/h (1 Bft) 94,92 %
06.12.2015 04:15 1,0 C 98 % 1030,7 hPa 0,0 l/m 0,5 km/h (0 Bft) S 180 0 min 0,000 mm 0,0 UV-I 0 W/m 0,7 C 1,0 C 3,2 km/h (1 Bft) 99,15 %
06.12.2015 04:20 0,9 C 98 % 1030,8 hPa 0,0 l/m 1,3 km/h (1 Bft) S 182 0 min 0,000 mm 0,0 UV-I 0 W/m 0,6 C 0,9 C 3,2 km/h (1 Bft) 99,07 %
06.12.2015 04:25 0,7 C 98 % 1030,7 hPa 0,0 l/m 0,7 km/h (0 Bft) S 182 0 min 0,000 mm 0,0 UV-I 0 W/m 0,4 C 0,7 C 3,2 km/h (1 Bft) 99,17 %
06.12.2015 04:30 0,6 C 98 % 1030,7 hPa 0,0 l/m 0,5 km/h (0 Bft) S 182 0 min 0,000 mm 0,0 UV-I 0 W/m 0,3 C 0,6 C 3,2 km/h (1 Bft) 98,31 %
06.12.2015 04:35 0,5 C 98 % 1030,7 hPa 0,0 l/m 1,2 km/h (1 Bft) S 182 0 min 0,000 mm 0,0 UV-I 0 W/m 0,2 C 0,5 C 3,2 km/h (1 Bft) 98,29 %
06.12.2015 04:40 0,3 C 98 % 1030,6 hPa 0,0 l/m 2,6 km/h (1 Bft) S 175 0 min 0,000 mm 0,0 UV-I 0 W/m 0,0 C 0,3 C 4,8 km/h (1 Bft) 99,15 %
06.12.2015 04:45 0,2 C 98 % 1030,6 hPa 0,0 l/m 0,8 km/h (0 Bft) S-SO 165 0 min 0,000 mm 0,0 UV-I 0 W/m -0,1 C 0,2 C 3,2 km/h (1 Bft) 99,15 %
06.12.2015 04:50 0,1 C 98 % 1030,6 hPa 0,0 l/m 0,2 km/h (0 Bft) S-SO 165 0 min 0,000 mm 0,0 UV-I 0 W/m -0,2 C 0,1 C 1,6 km/h (1 Bft) 99,15 %
06.12.2015 04:55 0,0 C 98 % 1030,6 hPa 0,0 l/m 0,0 km/h (0 Bft) S-SO 165 0 min 0,000 mm 0,0 UV-I 0 W/m -0,3 C 0,0 C 1,6 km/h (1 Bft) 97,46 %
06.12.2015 05:00 0,0 C 98 % 1030,6 hPa 0,0 l/m 0,0 km/h (0 Bft) S-SO 165 0 min 0,000 mm 0,0 UV-I 0 W/m -0,3 C 0,0 C 1,6 km/h (1 Bft) 98,29 %
06.12.2015 05:05 -0,1 C 98 % 1030,6 hPa 0,0 l/m 0,0 km/h (0 Bft) S-SO 165 0 min 0,000 mm 0,0 UV-I 0 W/m -0,4 C -0,1 C 0,0 km/h (0 Bft) 97,32 %
06.12.2015 05:10 -0,1 C 98 % 1030,6 hPa 0,0 l/m 0,1 km/h (0 Bft) S-SO 165 0 min 0,000 mm 0,0 UV-I 0 W/m -0,4 C -0,1 C 1,6 km/h (1 Bft) 98,35 %
06.12.2015 05:15 -0,1 C 98 % 1030,7 hPa 0,0 l/m 0,0 km/h (0 Bft) S-SO 165 0 min 0,000 mm 0,0 UV-I 0 W/m -0,4 C -0,1 C 1,6 km/h (1 Bft) 98,29 %
06.12.2015 05:20 -0,1 C 98 % 1030,7 hPa 0,0 l/m 1,1 km/h (1 Bft) S-SO 165 0 min 0,000 mm 0,0 UV-I 0 W/m -0,4 C -0,1 C 3,2 km/h (1 Bft) 98,35 %
06.12.2015 05:25 -0,1 C 98 % 1030,6 hPa 0,0 l/m 0,7 km/h (0 Bft) S-SO 165 0 min 0,000 mm 0,0 UV-I 0 W/m -0,4 C -0,1 C 3,2 km/h (1 Bft) 100,00 %
06.12.2015 05:30 -0,2 C 98 % 1030,7 hPa 0,0 l/m 0,2 km/h (0 Bft) S-SO 165 0 min 0,000 mm 0,0 UV-I 0 W/m -0,5 C -0,2 C 1,6 km/h (1 Bft) 98,31 %
06.12.2015 05:35 -0,2 C 98 % 1030,7 hPa 0,0 l/m 0,1 km/h (0 Bft) S-SO 165 0 min 0,000 mm 0,0 UV-I 0 W/m -0,5 C -0,2 C 1,6 km/h (1 Bft) 100,00 %
06.12.2015 05:40 -0,2 C 98 % 1030,7 hPa 0,0 l/m 0,5 km/h (0 Bft) S-SO 165 0 min 0,000 mm 0,0 UV-I 0 W/m -0,5 C -0,2 C 1,6 km/h (1 Bft) 96,58 %
06.12.2015 05:45 -0,2 C 98 % 1030,6 hPa 0,0 l/m 0,8 km/h (0 Bft) S-SO 165 0 min 0,000 mm 0,0 UV-I 0 W/m -0,5 C -0,2 C 1,6 km/h (1 Bft) 96,33 %
06.12.2015 05:50 -0,2 C 98 % 1030,6 hPa 0,0 l/m 3,3 km/h (1 Bft) S-SO 165 0 min 0,000 mm 0,0 UV-I 0 W/m -0,5 C -0,2 C 6,4 km/h (2 Bft) 95,16 %
06.12.2015 05:55 -0,1 C 98 % 1030,6 hPa 0,0 l/m 2,4 km/h (1 Bft) S-SO 165 0 min 0,000 mm 0,0 UV-I 0 W/m -0,4 C -0,1 C 6,4 km/h (2 Bft) 98,29 %
06.12.2015 06:00 0,0 C 98 % 1030,6 hPa 0,0 l/m 1,5 km/h (1 Bft) S-SO 165 0 min 0,000 mm 0,0 UV-I 0 W/m -0,3 C 0,0 C 3,2 km/h (1 Bft) 95,76 %
06.12.2015 06:05 -0,1 C 98 % 1030,6 hPa 0,0 l/m 2,8 km/h (1 Bft) S-SO 165 0 min 0,000 mm 0,0 UV-I 0 W/m -0,4 C -0,1 C 6,4 km/h (2 Bft) 94,87 %
06.12.2015 06:10 -0,1 C 98 % 1030,5 hPa 0,0 l/m 1,4 km/h (1 Bft) S-SO 165 0 min 0,000 mm 0,0 UV-I 0 W/m -0,4 C -0,1 C 3,2 km/h (1 Bft) 97,17 %
06.12.2015 06:15 -0,1 C 98 % 1030,7 hPa 0,0 l/m 0,2 km/h (0 Bft) S-SO 165 0 min 0,000 mm 0,0 UV-I 0 W/m -0,4 C -0,1 C 1,6 km/h (1 Bft) 98,31 %
06.12.2015 06:20 0,1 C 98 % 1030,7 hPa 0,0 l/m 0,6 km/h (0 Bft) S-SO 165 0 min 0,000 mm 0,0 UV-I 0 W/m -0,2 C 0,1 C 1,6 km/h (1 Bft) 97,56 %
06.12.2015 06:25 0,1 C 98 % 1030,7 hPa 0,0 l/m 1,2 km/h (1 Bft) S-SO 165 0 min 0,000 mm 0,0 UV-I 0 W/m -0,2 C 0,1 C 3,2 km/h (1 Bft) 99,15 %
06.12.2015 06:30 0,2 C 98 % 1030,8 hPa 0,0 l/m 1,1 km/h (1 Bft) S-SO 165 0 min 0,000 mm 0,0 UV-I 0 W/m -0,1 C 0,2 C 3,2 km/h (1 Bft) 100,00 %
06.12.2015 06:35 0,2 C 98 % 1030,7 hPa 0,0 l/m 0,4 km/h (0 Bft) S-SO 165 0 min 0,000 mm 0,0 UV-I 0 W/m -0,1 C 0,2 C 1,6 km/h (1 Bft) 99,07 %
06.12.2015 06:40 0,2 C 98 % 1030,8 hPa 0,0 l/m 0,0 km/h (0 Bft) S-SO 165 0 min 0,000 mm 0,0 UV-I 0 W/m -0,1 C 0,2 C 0,0 km/h (0 Bft) 100,00 %
06.12.2015 06:45 0,2 C 98 % 1030,7 hPa 0,0 l/m 0,1 km/h (0 Bft) S-SO 165 0 min 0,000 mm 0,0 UV-I 0 W/m -0,1 C 0,2 C 1,6 km/h (1 Bft) 99,15 %
06.12.2015 06:50 0,3 C 99 % 1030,8 hPa 0,0 l/m 0,2 km/h (0 Bft) S-SO 165 0 min 0,000 mm 0,0 UV-I 0 W/m 0,2 C 0,3 C 1,6 km/h (1 Bft) 98,33 %
06.12.2015 06:55 0,3 C 98 % 1030,8 hPa 0,0 l/m 0,0 km/h (0 Bft) S-SO 165 0 min 0,000 mm 0,0 UV-I 0 W/m 0,0 C 0,3 C 1,6 km/h (1 Bft) 100,00 %
06.12.2015 07:00 0,3 C 98 % 1030,8 hPa 0,0 l/m 0,0 km/h (0 Bft) S-SO 165 0 min 0,000 mm 0,0 UV-I 0 W/m 0,0 C 0,3 C 0,0 km/h (0 Bft) 99,06 %
06.12.2015 07:05 0,3 C 98 % 1030,9 hPa 0,0 l/m 1,5 km/h (1 Bft) S-SO 165 0 min 0,000 mm 0,0 UV-I 0 W/m 0,0 C 0,3 C 3,2 km/h (1 Bft) 99,22 %
06.12.2015 07:10 0,4 C 98 % 1030,9 hPa 0,0 l/m 1,6 km/h (1 Bft) S-SO 165 0 min 0,000 mm 0,0 UV-I 0 W/m 0,1 C 0,4 C 3,2 km/h (1 Bft) 98,31 %
06.12.2015 07:15 0,4 C 98 % 1030,9 hPa 0,0 l/m 0,5 km/h (0 Bft) S-SO 165 0 min 0,000 mm 0,0 UV-I 0 W/m 0,1 C 0,4 C 1,6 km/h (1 Bft) 97,44 %
06.12.2015 07:20 0,6 C 98 % 1031,0 hPa 0,0 l/m 0,0 km/h (0 Bft) S-SO 165 0 min 0,000 mm 0,0 UV-I 0 W/m 0,3 C 0,6 C 1,6 km/h (1 Bft) 99,15 %
06.12.2015 07:25 0,6 C 99 % 1031,0 hPa 0,0 l/m 0,4 km/h (0 Bft) S-SO 165 0 min 0,000 mm 0,0 UV-I 0 W/m 0,5 C 0,6 C 1,6 km/h (1 Bft) 100,00 %
06.12.2015 07:30 0,6 C 99 % 1031,0 hPa 0,0 l/m 0,4 km/h (0 Bft) S-SO 165 0 min 0,000 mm 0,0 UV-I 0 W/m 0,5 C 0,6 C 3,2 km/h (1 Bft) 97,44 %
06.12.2015 07:35 0,8 C 98 % 1031,0 hPa 0,0 l/m 0,4 km/h (0 Bft) O-NO 72 0 min 0,000 mm 0,0 UV-I 0 W/m 0,5 C 0,8 C 4,8 km/h (1 Bft) 97,46 %
06.12.2015 07:40 1,3 C 99 % 1031,1 hPa 0,0 l/m 3,6 km/h (1 Bft) O-NO 67 0 min 0,000 mm 0,0 UV-I 0 W/m 1,2 C 1,3 C 6,4 km/h (2 Bft) 97,44 %
06.12.2015 07:45 1,5 C 99 % 1031,1 hPa 0,0 l/m 3,9 km/h (1 Bft) O-NO 73 0 min 0,000 mm 0,0 UV-I 1 W/m 1,4 C 1,5 C 6,4 km/h (2 Bft) 95,76 %
06.12.2015 07:50 1,6 C 99 % 1031,2 hPa 0,0 l/m 4,7 km/h (1 Bft) O-SO 104 0 min 0,000 mm 0,0 UV-I 5 W/m 1,5 C 1,6 C 8,0 km/h (2 Bft) 97,46 %
06.12.2015 07:55 1,6 C 99 % 1031,3 hPa 0,0 l/m 3,7 km/h (1 Bft) O-SO 103 0 min 0,000 mm 0,0 UV-I 7 W/m 1,5 C 1,6 C 9,7 km/h (2 Bft) 97,44 %
06.12.2015 08:00 1,5 C 99 % 1031,3 hPa 0,0 l/m 3,0 km/h (1 Bft) O-NO 77 0 min 0,000 mm 0,0 UV-I 7 W/m 1,4 C 1,5 C 6,4 km/h (2 Bft) 94,92 %
06.12.2015 08:05 1,4 C 99 % 1031,3 hPa 0,0 l/m 2,9 km/h (1 Bft) O-NO 76 0 min 0,000 mm 0,0 UV-I 10 W/m 1,3 C 1,4 C 6,4 km/h (2 Bft) 94,02 %
06.12.2015 08:10 1,3 C 99 % 1031,4 hPa 0,0 l/m 4,1 km/h (1 Bft) NO 54 0 min 0,000 mm 0,0 UV-I 13 W/m 1,2 C 1,3 C 6,4 km/h (2 Bft) 97,46 %
06.12.2015 08:15 1,3 C 99 % 1031,5 hPa 0,0 l/m 1,4 km/h (1 Bft) SO 146 0 min 0,000 mm 0,0 UV-I 16 W/m 1,2 C 1,3 C 4,8 km/h (1 Bft) 99,15 %
06.12.2015 08:20 1,2 C 98 % 1031,6 hPa 0,0 l/m 2,4 km/h (1 Bft) O-SO 110 0 min 0,000 mm 0,0 UV-I 19 W/m 0,9 C 1,2 C 6,4 km/h (2 Bft) 95,83 %
06.12.2015 08:25 1,1 C 99 % 1031,7 hPa 0,0 l/m 3,6 km/h (1 Bft) O-NO 61 0 min 0,000 mm 0,0 UV-I 22 W/m 1,0 C 1,1 C 6,4 km/h (2 Bft) 96,61 %
06.12.2015 08:30 1,0 C 99 % 1031,7 hPa 0,0 l/m 2,8 km/h (1 Bft) O-NO 68 0 min 0,000 mm 0,0 UV-I 24 W/m 0,9 C 1,0 C 6,4 km/h (2 Bft) 100,00 %
06.12.2015 08:35 1,0 C 99 % 1031,7 hPa 0,0 l/m 1,9 km/h (1 Bft) O-NO 67 0 min 0,000 mm 0,0 UV-I 23 W/m 0,9 C 1,0 C 4,8 km/h (1 Bft) 86,79 %
06.12.2015 08:40 1,0 C 99 % 1031,8 hPa 0,0 l/m 1,6 km/h (1 Bft) O-NO 58 0 min 0,000 mm 0,0 UV-I 28 W/m 0,9 C 1,0 C 4,8 km/h (1 Bft) 85,95 %
06.12.2015 08:45 1,0 C 99 % 1031,8 hPa 0,0 l/m 1,7 km/h (1 Bft) SO 124 0 min 0,000 mm 0,0 UV-I 31 W/m 0,9 C 1,0 C 4,8 km/h (1 Bft) 92,37 %
06.12.2015 08:50 0,9 C 99 % 1031,8 hPa 0,0 l/m 0,7 km/h (0 Bft) SO 124 0 min 0,000 mm 0,0 UV-I 38 W/m 0,8 C 0,9 C 3,2 km/h (1 Bft) 98,29 %
06.12.2015 08:55 0,9 C 99 % 1031,9 hPa 0,0 l/m 2,1 km/h (1 Bft) O 101 0 min 0,000 mm 0,0 UV-I 42 W/m 0,8 C 0,9 C 4,8 km/h (1 Bft) 97,52 %
06.12.2015 09:00 0,8 C 98 % 1032,0 hPa 0,0 l/m 3,0 km/h (1 Bft) O-NO 69 0 min 0,000 mm 0,0 UV-I 48 W/m 0,5 C 0,8 C 4,8 km/h (1 Bft) 98,11 %
06.12.2015 09:05 0,8 C 98 % 1032,0 hPa 0,0 l/m 0,8 km/h (0 Bft) O-SO 109 0 min 0,000 mm 0,0 UV-I 44 W/m 0,5 C 0,8 C 3,2 km/h (1 Bft) 53,33 %
06.12.2015 09:10 0,8 C 98 % 1032,0 hPa 0,0 l/m 1,4 km/h (1 Bft) S-SO 147 0 min 0,000 mm 0,0 UV-I 48 W/m 0,5 C 0,8 C 4,8 km/h (1 Bft) 52,89 %
06.12.2015 09:15 0,7 C 98 % 1032,1 hPa 0,0 l/m 1,2 km/h (1 Bft) S-SO 148 0 min 0,000 mm 0,0 UV-I 51 W/m 0,4 C 0,7 C 3,2 km/h (1 Bft) 44,44 %
06.12.2015 09:20 0,8 C 98 % 1032,1 hPa 0,0 l/m 2,4 km/h (1 Bft) SO 134 0 min 0,000 mm 0,0 UV-I 62 W/m 0,5 C 0,8 C 4,8 km/h (1 Bft) 62,71 %
06.12.2015 09:25 0,8 C 98 % 1032,2 hPa 0,0 l/m 2,3 km/h (1 Bft) SO 134 0 min 0,000 mm 0,0 UV-I 70 W/m 0,5 C 0,8 C 4,8 km/h (1 Bft) 67,52 %
06.12.2015 09:30 0,7 C 99 % 1032,3 hPa 0,0 l/m 1,4 km/h (1 Bft) SO 134 0 min 0,000 mm 0,0 UV-I 65 W/m 0,6 C 0,7 C 3,2 km/h (1 Bft) 87,50 %
06.12.2015 09:35 0,8 C 98 % 1032,3 hPa 0,0 l/m 2,3 km/h (1 Bft) SO 127 0 min 0,000 mm 0,0 UV-I 68 W/m 0,5 C 0,8 C 4,8 km/h (1 Bft) 73,11 %
06.12.2015 09:40 0,8 C 98 % 1032,2 hPa 0,0 l/m 2,3 km/h (1 Bft) S 175 0 min 0,000 mm 0,0 UV-I 84 W/m 0,5 C 0,8 C 4,8 km/h (1 Bft) 85,47 %
06.12.2015 09:45 0,8 C 98 % 1032,3 hPa 0,0 l/m 2,6 km/h (1 Bft) O 101 0 min 0,000 mm 0,0 UV-I 86 W/m 0,5 C 0,8 C 6,4 km/h (2 Bft) 95,33 %
06.12.2015 09:50 0,8 C 98 % 1032,4 hPa 0,0 l/m 1,9 km/h (1 Bft) O 101 0 min 0,000 mm 0,0 UV-I 79 W/m 0,5 C 0,8 C 4,8 km/h (1 Bft) 97,52 %
06.12.2015 09:55 0,9 C 99 % 1032,5 hPa 0,0 l/m 0,1 km/h (0 Bft) O-SO 112 0 min 0,000 mm 0,0 UV-I 85 W/m 0,8 C 0,9 C 1,6 km/h (1 Bft) 96,58 %
06.12.2015 10:00 0,8 C 98 % 1032,4 hPa 0,0 l/m 0,8 km/h (0 Bft) S-SO 148 0 min 0,025 mm 0,0 UV-I 85 W/m 0,5 C 0,8 C 4,8 km/h (1 Bft) 95,87 %
06.12.2015 10:05 0,9 C 98 % 1032,4 hPa 0,0 l/m 3,7 km/h (1 Bft) S 184 0 min 0,000 mm 0,0 UV-I 91 W/m 0,6 C 0,9 C 6,4 km/h (2 Bft) 95,83 %
06.12.2015 10:10 1,0 C 99 % 1032,5 hPa 0,0 l/m 0,4 km/h (0 Bft) S 173 0 min 0,000 mm 0,0 UV-I 112 W/m 0,9 C 1,0 C 3,2 km/h (1 Bft) 98,17 %
06.12.2015 10:15 0,9 C 99 % 1032,5 hPa 0,0 l/m 2,7 km/h (1 Bft) SO 137 0 min 0,000 mm 0,0 UV-I 106 W/m 0,8 C 0,9 C 4,8 km/h (1 Bft) 96,69 %
06.12.2015 10:20 0,8 C 98 % 1032,5 hPa 0,0 l/m 1,9 km/h (1 Bft) SO 142 0 min 0,000 mm 0,0 UV-I 92 W/m 0,5 C 0,8 C 3,2 km/h (1 Bft) 96,58 %
06.12.2015 10:25 1,0 C 99 % 1032,5 hPa 0,0 l/m 2,0 km/h (1 Bft) S-SO 149 0 min 0,000 mm 0,0 UV-I 98 W/m 0,9 C 1,0 C 4,8 km/h (1 Bft) 97,46 %
06.12.2015 10:30 1,0 C 99 % 1032,5 hPa 0,0 l/m 1,5 km/h (1 Bft) S-SO 156 0 min 0,000 mm 0,0 UV-I 101 W/m 0,9 C 1,0 C 4,8 km/h (1 Bft) 97,46 %
06.12.2015 10:35 1,1 C 99 % 1032,6 hPa 0,0 l/m 0,4 km/h (0 Bft) S-SO 157 0 min 0,000 mm 0,0 UV-I 107 W/m 1,0 C 1,1 C 3,2 km/h (1 Bft) 99,17 %
06.12.2015 10:40 1,2 C 98 % 1032,6 hPa 0,0 l/m 0,6 km/h (0 Bft) SO 140 0 min 0,000 mm 0,0 UV-I 107 W/m 0,9 C 1,2 C 3,2 km/h (1 Bft) 99,06 %
06.12.2015 10:45 1,2 C 98 % 1032,5 hPa 0,0 l/m 1,7 km/h (1 Bft) SO 132 0 min 0,000 mm 0,0 UV-I 121 W/m 0,9 C 1,2 C 3,2 km/h (1 Bft) 96,69 %
06.12.2015 10:50 1,3 C 99 % 1032,4 hPa 0,0 l/m 1,9 km/h (1 Bft) O-SO 120 0 min 0,000 mm 0,0 UV-I 126 W/m 1,2 C 1,3 C 3,2 km/h (1 Bft) 99,15 %
06.12.2015 10:55 1,5 C 99 % 1032,4 hPa 0,0 l/m 1,3 km/h (1 Bft) O 101 0 min 0,000 mm 0,0 UV-I 124 W/m 1,4 C 1,5 C 3,2 km/h (1 Bft) 97,46 %
06.12.2015 11:00 1,3 C 99 % 1032,2 hPa 0,0 l/m 1,9 km/h (1 Bft) O-NO 75 0 min 0,026 mm 0,0 UV-I 119 W/m 1,2 C 1,3 C 4,8 km/h (1 Bft) 96,58 %
06.12.2015 11:05 1,5 C 99 % 1032,2 hPa 0,0 l/m 2,4 km/h (1 Bft) O-SO 108 0 min 0,000 mm 0,2 UV-I 129 W/m 1,4 C 1,5 C 6,4 km/h (2 Bft) 95,04 %
06.12.2015 11:10 1,4 C 99 % 1032,1 hPa 0,0 l/m 3,8 km/h (1 Bft) O 101 0 min 0,000 mm 0,5 UV-I 137 W/m 1,3 C 1,4 C 6,4 km/h (2 Bft) 99,15 %
06.12.2015 11:15 1,6 C 99 % 1032,1 hPa 0,0 l/m 1,1 km/h (1 Bft) O-SO 121 0 min 0,000 mm 0,5 UV-I 135 W/m 1,5 C 1,6 C 3,2 km/h (1 Bft) 100,00 %
06.12.2015 11:20 1,7 C 99 % 1032,0 hPa 0,0 l/m 4,5 km/h (1 Bft) O-SO 119 0 min 0,000 mm 0,5 UV-I 156 W/m 1,6 C 1,7 C 9,7 km/h (2 Bft) 98,35 %
06.12.2015 11:25 1,5 C 99 % 1032,2 hPa 0,0 l/m 3,9 km/h (1 Bft) NO 54 0 min 0,000 mm 0,5 UV-I 128 W/m 1,4 C 1,5 C 6,4 km/h (2 Bft) 98,31 %
06.12.2015 11:30 1,5 C 99 % 1032,2 hPa 0,0 l/m 2,3 km/h (1 Bft) O-NO 74 0 min 0,000 mm 0,5 UV-I 140 W/m 1,4 C 1,5 C 4,8 km/h (1 Bft) 99,15 %
06.12.2015 11:35 1,8 C 99 % 1032,1 hPa 0,0 l/m 2,5 km/h (1 Bft) NO 35 0 min 0,000 mm 0,5 UV-I 130 W/m 1,7 C 1,8 C 4,8 km/h (1 Bft) 96,69 %
06.12.2015 11:40 1,8 C 99 % 1032,0 hPa 0,0 l/m 2,3 km/h (1 Bft) NO 53 0 min 0,000 mm 0,6 UV-I 141 W/m 1,7 C 1,8 C 4,8 km/h (1 Bft) 98,15 %
06.12.2015 11:45 1,9 C 99 % 1032,0 hPa 0,0 l/m 1,7 km/h (1 Bft) N-NO 28 0 min 0,000 mm 0,6 UV-I 164 W/m 1,8 C 1,9 C 4,8 km/h (1 Bft) 78,81 %
06.12.2015 11:50 2,1 C 99 % 1032,0 hPa 0,0 l/m 1,7 km/h (1 Bft) N-NO 13 0 min 0,000 mm 0,2 UV-I 143 W/m 2,0 C 2,1 C 6,4 km/h (2 Bft) 47,46 %
06.12.2015 11:55 2,0 C 99 % 1032,0 hPa 0,0 l/m 3,3 km/h (1 Bft) NO 39 0 min 0,000 mm 0,2 UV-I 113 W/m 1,9 C 2,0 C 8,0 km/h (2 Bft) 60,83 %
06.12.2015 12:00 2,2 C 99 % 1031,9 hPa 0,0 l/m 4,0 km/h (1 Bft) N-NO 20 0 min 0,051 mm 0,3 UV-I 146 W/m 2,1 C 2,2 C 8,0 km/h (2 Bft) 45,45 %
06.12.2015 12:05 2,2 C 99 % 1031,8 hPa 0,0 l/m 2,6 km/h (1 Bft) N 11 0 min 0,000 mm 0,5 UV-I 134 W/m 2,1 C 2,2 C 6,4 km/h (2 Bft) 70,09 %
06.12.2015 12:10 2,2 C 99 % 1031,9 hPa 0,0 l/m 0,9 km/h (0 Bft) N 5 0 min 0,000 mm 0,3 UV-I 136 W/m 2,1 C 2,2 C 4,8 km/h (1 Bft) 88,14 %
06.12.2015 12:15 2,3 C 99 % 1031,9 hPa 0,0 l/m 2,8 km/h (1 Bft) N-NO 25 0 min 0,000 mm 0,0 UV-I 114 W/m 2,2 C 2,3 C 6,4 km/h (2 Bft) 72,48 %
06.12.2015 12:20 2,5 C 99 % 1031,9 hPa 0,0 l/m 2,8 km/h (1 Bft) N 11 0 min 0,000 mm 0,0 UV-I 129 W/m 2,4 C 2,5 C 6,4 km/h (2 Bft) 88,03 %
06.12.2015 12:25 2,6 C 99 % 1031,8 hPa 0,0 l/m 1,5 km/h (1 Bft) N 351 0 min 0,000 mm 0,0 UV-I 125 W/m 2,5 C 2,6 C 4,8 km/h (1 Bft) 94,07 %
06.12.2015 12:30 2,5 C 99 % 1031,8 hPa 0,0 l/m 2,3 km/h (1 Bft) N-NW 327 0 min 0,000 mm 0,0 UV-I 102 W/m 2,4 C 2,5 C 6,4 km/h (2 Bft) 97,52 %
06.12.2015 12:35 2,4 C 99 % 1031,8 hPa 0,0 l/m 1,7 km/h (1 Bft) NW 324 0 min 0,000 mm 0,0 UV-I 110 W/m 2,3 C 2,4 C 3,2 km/h (1 Bft) 98,33 %
06.12.2015 12:40 2,6 C 99 % 1031,7 hPa 0,0 l/m 1,0 km/h (0 Bft) NW 325 0 min 0,000 mm 0,1 UV-I 131 W/m 2,5 C 2,6 C 3,2 km/h (1 Bft) 98,17 %
06.12.2015 12:45 2,6 C 99 % 1031,7 hPa 0,0 l/m 1,6 km/h (1 Bft) N-NO 19 0 min 0,000 mm 0,0 UV-I 118 W/m 2,5 C 2,6 C 4,8 km/h (1 Bft) 98,35 %
06.12.2015 12:50 2,7 C 99 % 1031,7 hPa 0,0 l/m 1,5 km/h (1 Bft) N 5 0 min 0,000 mm 0,0 UV-I 103 W/m 2,6 C 2,7 C 6,4 km/h (2 Bft) 97,44 %
06.12.2015 12:55 2,6 C 99 % 1031,6 hPa 0,0 l/m 1,6 km/h (1 Bft) NW 317 0 min 0,000 mm 0,0 UV-I 95 W/m 2,5 C 2,6 C 4,8 km/h (1 Bft) 99,15 %
06.12.2015 13:00 2,4 C 99 % 1031,7 hPa 0,0 l/m 1,6 km/h (1 Bft) N-NW 339 0 min 0,050 mm 0,0 UV-I 109 W/m 2,3 C 2,4 C 3,2 km/h (1 Bft) 95,83 %
06.12.2015 13:05 2,7 C 99 % 1031,6 hPa 0,0 l/m 0,3 km/h (0 Bft) N-NW 340 0 min 0,000 mm 0,0 UV-I 99 W/m 2,6 C 2,7 C 3,2 km/h (1 Bft) 96,61 %
06.12.2015 13:10 2,4 C 99 % 1031,6 hPa 0,0 l/m 0,9 km/h (0 Bft) N-NW 338 0 min 0,000 mm 0,0 UV-I 98 W/m 2,3 C 2,4 C 3,2 km/h (1 Bft) 99,15 %
06.12.2015 13:15 2,6 C 99 % 1031,6 hPa 0,0 l/m 0,4 km/h (0 Bft) N-NW 338 0 min 0,000 mm 0,0 UV-I 108 W/m 2,5 C 2,6 C 1,6 km/h (1 Bft) 91,89 %
06.12.2015 13:20 2,6 C 99 % 1031,6 hPa 0,0 l/m 0,5 km/h (0 Bft) N 5 0 min 0,000 mm 0,0 UV-I 101 W/m 2,5 C 2,6 C 3,2 km/h (1 Bft) 100,00 %
06.12.2015 13:25 2,8 C 99 % 1031,6 hPa 0,0 l/m 2,0 km/h (1 Bft) N-NO 27 0 min 0,000 mm 0,0 UV-I 92 W/m 2,7 C 2,8 C 4,8 km/h (1 Bft) 97,46 %
06.12.2015 13:30 2,6 C 99 % 1031,6 hPa 0,0 l/m 2,6 km/h (1 Bft) NO 44 0 min 0,000 mm 0,0 UV-I 88 W/m 2,5 C 2,6 C 4,8 km/h (1 Bft) 100,00 %
06.12.2015 13:35 2,6 C 99 % 1031,6 hPa 0,0 l/m 2,1 km/h (1 Bft) NO 44 0 min 0,000 mm 0,0 UV-I 99 W/m 2,5 C 2,6 C 4,8 km/h (1 Bft) 99,15 %
06.12.2015 13:40 2,4 C 99 % 1031,6 hPa 0,0 l/m 2,4 km/h (1 Bft) O-NO 63 0 min 0,000 mm 0,0 UV-I 97 W/m 2,3 C 2,4 C 4,8 km/h (1 Bft) 96,58 %
06.12.2015 13:45 2,5 C 99 % 1031,6 hPa 0,0 l/m 2,5 km/h (1 Bft) N-NO 32 0 min 0,000 mm 0,0 UV-I 87 W/m 2,4 C 2,5 C 4,8 km/h (1 Bft) 96,69 %
06.12.2015 13:50 2,4 C 99 % 1031,6 hPa 0,0 l/m 0,5 km/h (0 Bft) N-NO 32 0 min 0,000 mm 0,0 UV-I 73 W/m 2,3 C 2,4 C 3,2 km/h (1 Bft) 96,33 %
06.12.2015 13:55 2,6 C 99 % 1031,5 hPa 0,0 l/m 0,6 km/h (0 Bft) N-NO 32 0 min 0,000 mm 0,0 UV-I 70 W/m 2,5 C 2,6 C 1,6 km/h (1 Bft) 90,83 %
06.12.2015 14:00 2,6 C 99 % 1031,5 hPa 0,0 l/m 1,2 km/h (1 Bft) N-NO 32 0 min 0,026 mm 0,0 UV-I 73 W/m 2,5 C 2,6 C 3,2 km/h (1 Bft) 96,69 %
06.12.2015 14:05 2,7 C 99 % 1031,4 hPa 0,0 l/m 0,0 km/h (0 Bft) N-NO 32 0 min 0,000 mm 0,0 UV-I 71 W/m 2,6 C 2,7 C 0,0 km/h (0 Bft) 96,33 %
06.12.2015 14:10 2,9 C 99 % 1031,3 hPa 0,0 l/m 2,2 km/h (1 Bft) SO 141 0 min 0,000 mm 0,0 UV-I 67 W/m 2,8 C 2,9 C 6,4 km/h (2 Bft) 91,45 %
06.12.2015 14:15 2,9 C 99 % 1031,3 hPa 0,0 l/m 5,0 km/h (1 Bft) SO 132 0 min 0,000 mm 0,0 UV-I 83 W/m 2,8 C 2,9 C 9,7 km/h (2 Bft) 83,90 %
06.12.2015 14:20 2,7 C 99 % 1031,2 hPa 0,0 l/m 3,8 km/h (1 Bft) SO 136 0 min 0,000 mm 0,0 UV-I 68 W/m 2,6 C 2,7 C 6,4 km/h (2 Bft) 92,31 %
06.12.2015 14:25 2,8 C 99 % 1031,2 hPa 0,0 l/m 2,3 km/h (1 Bft) SO 124 0 min 0,000 mm 0,0 UV-I 65 W/m 2,7 C 2,8 C 4,8 km/h (1 Bft) 94,07 %
06.12.2015 14:30 3,0 C 99 % 1031,2 hPa 0,0 l/m 4,0 km/h (1 Bft) O-SO 112 0 min 0,000 mm 0,0 UV-I 56 W/m 2,9 C 3,0 C 9,7 km/h (2 Bft) 95,16 %
06.12.2015 14:35 2,9 C 99 % 1031,3 hPa 0,0 l/m 5,4 km/h (1 Bft) O-SO 104 0 min 0,000 mm 0,0 UV-I 58 W/m 2,8 C 2,9 C 9,7 km/h (2 Bft) 93,52 %
06.12.2015 14:40 2,9 C 99 % 1031,2 hPa 0,0 l/m 2,5 km/h (1 Bft) O 79 0 min 0,000 mm 0,0 UV-I 57 W/m 2,8 C 2,9 C 4,8 km/h (1 Bft) 98,31 %
06.12.2015 14:45 2,9 C 99 % 1031,2 hPa 0,0 l/m 3,2 km/h (1 Bft) O 84 0 min 0,000 mm 0,0 UV-I 51 W/m 2,8 C 2,9 C 6,4 km/h (2 Bft) 96,61 %
06.12.2015 14:50 2,8 C 99 % 1031,1 hPa 0,0 l/m 3,8 km/h (1 Bft) O-SO 122 0 min 0,000 mm 0,0 UV-I 39 W/m 2,7 C 2,8 C 6,4 km/h (2 Bft) 98,29 %
06.12.2015 14:55 2,7 C 99 % 1031,0 hPa 0,0 l/m 3,6 km/h (1 Bft) O-SO 117 0 min 0,000 mm 0,0 UV-I 38 W/m 2,6 C 2,7 C 6,4 km/h (2 Bft) 97,52 %
06.12.2015 15:00 2,6 C 99 % 1031,0 hPa 0,0 l/m 3,3 km/h (1 Bft) O-SO 122 0 min 0,025 mm 0,0 UV-I 38 W/m 2,5 C 2,6 C 6,4 km/h (2 Bft) 97,44 %
06.12.2015 15:05 2,6 C 99 % 1031,0 hPa 0,0 l/m 0,9 km/h (0 Bft) O-SO 122 0 min 0,000 mm 0,0 UV-I 34 W/m 2,5 C 2,6 C 3,2 km/h (1 Bft) 100,00 %
06.12.2015 15:10 2,6 C 99 % 1031,0 hPa 0,0 l/m 0,1 km/h (0 Bft) O-SO 122 0 min 0,000 mm 0,0 UV-I 30 W/m 2,5 C 2,6 C 1,6 km/h (1 Bft) 98,00 %
06.12.2015 15:15 2,7 C 99 % 1031,0 hPa 0,0 l/m 1,4 km/h (1 Bft) O-SO 120 0 min 0,000 mm 0,0 UV-I 28 W/m 2,6 C 2,7 C 3,2 km/h (1 Bft) 97,78 %
06.12.2015 15:20 2,6 C 99 % 1031,2 hPa 0,0 l/m 1,0 km/h (0 Bft) O-SO 117 0 min 0,000 mm 0,0 UV-I 29 W/m 2,5 C 2,6 C 4,8 km/h (1 Bft) 98,31 %
06.12.2015 15:25 2,8 C 99 % 1031,2 hPa 0,0 l/m 2,2 km/h (1 Bft) O-NO 76 0 min 0,000 mm 0,0 UV-I 27 W/m 2,7 C 2,8 C 4,8 km/h (1 Bft) 100,00 %
06.12.2015 15:30 2,8 C 99 % 1031,1 hPa 0,0 l/m 1,0 km/h (0 Bft) O 88 0 min 0,000 mm 0,0 UV-I 27 W/m 2,7 C 2,8 C 3,2 km/h (1 Bft) 95,00 %
06.12.2015 15:35 2,9 C 99 % 1031,2 hPa 0,0 l/m 0,2 km/h (0 Bft) O 88 0 min 0,000 mm 0,0 UV-I 24 W/m 2,8 C 2,9 C 1,6 km/h (1 Bft) 95,16 %
06.12.2015 15:40 2,8 C 99 % 1031,2 hPa 0,0 l/m 0,6 km/h (0 Bft) O 88 0 min 0,000 mm 0,0 UV-I 20 W/m 2,7 C 2,8 C 1,6 km/h (1 Bft) 96,23 %
06.12.2015 15:45 2,8 C 99 % 1031,2 hPa 0,0 l/m 3,7 km/h (1 Bft) NO 44 0 min 0,000 mm 0,0 UV-I 15 W/m 2,7 C 2,8 C 6,4 km/h (2 Bft) 94,17 %
06.12.2015 15:50 2,8 C 99 % 1031,2 hPa 0,0 l/m 2,6 km/h (1 Bft) O-NO 65 0 min 0,000 mm 0,0 UV-I 10 W/m 2,7 C 2,8 C 4,8 km/h (1 Bft) 93,22 %
06.12.2015 15:55 2,6 C 99 % 1031,2 hPa 0,0 l/m 2,9 km/h (1 Bft) O-NO 69 0 min 0,000 mm 0,0 UV-I 8 W/m 2,5 C 2,6 C 6,4 km/h (2 Bft) 96,75 %
06.12.2015 16:00 2,6 C 99 % 1031,2 hPa 0,0 l/m 3,1 km/h (1 Bft) NO 54 0 min 0,000 mm 0,0 UV-I 7 W/m 2,5 C 2,6 C 6,4 km/h (2 Bft) 93,58 %
06.12.2015 16:05 2,6 C 99 % 1031,2 hPa 0,0 l/m 3,6 km/h (1 Bft) NO 52 0 min 0,000 mm 0,0 UV-I 6 W/m 2,5 C 2,6 C 6,4 km/h (2 Bft) 98,32 %
06.12.2015 16:10 2,7 C 99 % 1031,2 hPa 0,0 l/m 2,9 km/h (1 Bft) NO 51 0 min 0,000 mm 0,0 UV-I 2 W/m 2,6 C 2,7 C 4,8 km/h (1 Bft) 94,87 %
06.12.2015 16:15 2,6 C 99 % 1031,1 hPa 0,0 l/m 3,0 km/h (1 Bft) O-NO 57 0 min 0,000 mm 0,0 UV-I 0 W/m 2,5 C 2,6 C 6,4 km/h (2 Bft) 93,39 %
06.12.2015 16:20 2,7 C 99 % 1031,1 hPa 0,0 l/m 2,7 km/h (1 Bft) N-NO 32 0 min 0,000 mm 0,0 UV-I 0 W/m 2,6 C 2,7 C 4,8 km/h (1 Bft) 95,41 %
06.12.2015 16:25 2,7 C 99 % 1031,1 hPa 0,0 l/m 3,1 km/h (1 Bft) N-NO 20 0 min 0,000 mm 0,0 UV-I 0 W/m 2,6 C 2,7 C 6,4 km/h (2 Bft) 81,67 %
06.12.2015 16:30 2,6 C 99 % 1031,2 hPa 0,0 l/m 2,7 km/h (1 Bft) NO 34 0 min 0,000 mm 0,0 UV-I 0 W/m 2,5 C 2,6 C 6,4 km/h (2 Bft) 66,12 %
06.12.2015 16:35 2,4 C 99 % 1031,1 hPa 0,0 l/m 3,6 km/h (1 Bft) NO 44 0 min 0,000 mm 0,0 UV-I 0 W/m 2,3 C 2,4 C 4,8 km/h (1 Bft) 66,10 %
06.12.2015 16:40 2,4 C 99 % 1031,1 hPa 0,0 l/m 4,2 km/h (1 Bft) O-NO 59 0 min 0,000 mm 0,0 UV-I 0 W/m 2,3 C 2,4 C 6,4 km/h (2 Bft) 49,15 %
06.12.2015 16:45 2,3 C 99 % 1031,2 hPa 0,0 l/m 3,7 km/h (1 Bft) O-NO 63 0 min 0,000 mm 0,0 UV-I 0 W/m 2,2 C 2,3 C 6,4 km/h (2 Bft) 77,98 %
06.12.2015 16:50 2,3 C 99 % 1031,1 hPa 0,0 l/m 3,5 km/h (1 Bft) O-NO 77 0 min 0,000 mm 0,0 UV-I 0 W/m 2,2 C 2,3 C 6,4 km/h (2 Bft) 88,03 %
06.12.2015 16:55 2,2 C 99 % 1031,3 hPa 0,0 l/m 3,7 km/h (1 Bft) O-NO 76 0 min 0,000 mm 0,0 UV-I 0 W/m 2,1 C 2,2 C 6,4 km/h (2 Bft) 94,07 %
06.12.2015 17:00 2,2 C 99 % 1031,2 hPa 0,0 l/m 1,8 km/h (1 Bft) O-NO 76 0 min 0,000 mm 0,0 UV-I 0 W/m 2,1 C 2,2 C 4,8 km/h (1 Bft) 96,75 %
06.12.2015 17:05 2,2 C 99 % 1031,2 hPa 0,0 l/m 3,5 km/h (1 Bft) O-NO 76 0 min 0,000 mm 0,0 UV-I 0 W/m 2,1 C 2,2 C 6,4 km/h (2 Bft) 98,17 %
06.12.2015 17:10 2,2 C 99 % 1031,2 hPa 0,0 l/m 4,2 km/h (1 Bft) NO 49 0 min 0,000 mm 0,0 UV-I 0 W/m 2,1 C 2,2 C 6,4 km/h (2 Bft) 100,00 %
06.12.2015 17:15 2,1 C 99 % 1031,2 hPa 0,0 l/m 2,3 km/h (1 Bft) NO 49 0 min 0,000 mm 0,0 UV-I 0 W/m 2,0 C 2,1 C 4,8 km/h (1 Bft) 98,29 %
06.12.2015 17:20 2,1 C 99 % 1031,1 hPa 0,0 l/m 2,3 km/h (1 Bft) N-NO 19 0 min 0,000 mm 0,0 UV-I 0 W/m 2,0 C 2,1 C 4,8 km/h (1 Bft) 97,46 %
06.12.2015 17:25 2,1 C 99 % 1031,3 hPa 0,0 l/m 3,8 km/h (1 Bft) N-NO 33 0 min 0,000 mm 0,0 UV-I 0 W/m 2,0 C 2,1 C 6,4 km/h (2 Bft) 99,17 %
06.12.2015 17:30 2,1 C 99 % 1031,3 hPa 0,0 l/m 3,2 km/h (1 Bft) NW 313 0 min 0,000 mm 0,0 UV-I 0 W/m 2,0 C 2,1 C 6,4 km/h (2 Bft) 97,50 %
06.12.2015 17:35 2,2 C 99 % 1031,3 hPa 0,0 l/m 0,8 km/h (0 Bft) N 5 0 min 0,000 mm 0,0 UV-I 0 W/m 2,1 C 2,2 C 3,2 km/h (1 Bft) 93,58 %
06.12.2015 17:40 2,3 C 99 % 1031,4 hPa 0,0 l/m 1,5 km/h (1 Bft) N-NO 17 0 min 0,000 mm 0,0 UV-I 0 W/m 2,2 C 2,3 C 4,8 km/h (1 Bft) 99,19 %
06.12.2015 17:45 2,2 C 99 % 1031,5 hPa 0,0 l/m 1,3 km/h (1 Bft) N-NO 19 0 min 0,000 mm 0,0 UV-I 0 W/m 2,1 C 2,2 C 4,8 km/h (1 Bft) 99,15 %
06.12.2015 17:50 2,2 C 99 % 1031,4 hPa 0,0 l/m 2,0 km/h (1 Bft) N 10 0 min 0,000 mm 0,0 UV-I 0 W/m 2,1 C 2,2 C 4,8 km/h (1 Bft) 99,15 %
06.12.2015 17:55 2,2 C 99 % 1031,5 hPa 0,0 l/m 1,0 km/h (0 Bft) N 9 0 min 0,000 mm 0,0 UV-I 0 W/m 2,1 C 2,2 C 4,8 km/h (1 Bft) 98,29 %
06.12.2015 18:00 2,1 C 99 % 1031,6 hPa 0,0 l/m 2,8 km/h (1 Bft) N-NO 20 0 min 0,000 mm 0,0 UV-I 0 W/m 2,0 C 2,1 C 8,0 km/h (2 Bft) 100,00 %
06.12.2015 18:05 2,1 C 99 % 1031,7 hPa 0,0 l/m 1,1 km/h (1 Bft) N-NO 30 0 min 0,000 mm 0,0 UV-I 0 W/m 2,0 C 2,1 C 4,8 km/h (1 Bft) 97,46 %
06.12.2015 18:10 2,2 C 99 % 1031,7 hPa 0,0 l/m 1,2 km/h (1 Bft) N-NO 30 0 min 0,000 mm 0,0 UV-I 0 W/m 2,1 C 2,2 C 3,2 km/h (1 Bft) 95,83 %
06.12.2015 18:15 2,2 C 99 % 1031,7 hPa 0,0 l/m 2,1 km/h (1 Bft) NO 51 0 min 0,000 mm 0,0 UV-I 0 W/m 2,1 C 2,2 C 8,0 km/h (2 Bft) 95,04 %
06.12.2015 18:20 2,2 C 99 % 1031,6 hPa 0,0 l/m 2,5 km/h (1 Bft) O 85 0 min 0,000 mm 0,0 UV-I 0 W/m 2,1 C 2,2 C 4,8 km/h (1 Bft) 96,58 %
06.12.2015 18:25 2,2 C 99 % 1031,7 hPa 0,0 l/m 2,8 km/h (1 Bft) O 82 0 min 0,000 mm 0,0 UV-I 0 W/m 2,1 C 2,2 C 6,4 km/h (2 Bft) 95,87 %
06.12.2015 18:30 2,2 C 99 % 1031,8 hPa 0,0 l/m 2,4 km/h (1 Bft) O-NO 76 0 min 0,000 mm 0,0 UV-I 0 W/m 2,1 C 2,2 C 4,8 km/h (1 Bft) 96,33 %
06.12.2015 18:35 2,2 C 99 % 1031,8 hPa 0,0 l/m 1,4 km/h (1 Bft) O-NO 76 0 min 0,000 mm 0,0 UV-I 0 W/m 2,1 C 2,2 C 3,2 km/h (1 Bft) 94,87 %
06.12.2015 18:40 2,2 C 99 % 1031,9 hPa 0,0 l/m 1,0 km/h (0 Bft) SO 140 0 min 0,000 mm 0,0 UV-I 0 W/m 2,1 C 2,2 C 3,2 km/h (1 Bft) 98,31 %
06.12.2015 18:45 2,2 C 99 % 1032,0 hPa 0,0 l/m 1,0 km/h (0 Bft) SO 146 0 min 0,000 mm 0,0 UV-I 0 W/m 2,1 C 2,2 C 3,2 km/h (1 Bft) 99,15 %
06.12.2015 18:50 2,2 C 99 % 1032,1 hPa 0,0 l/m 0,4 km/h (0 Bft) SO 146 0 min 0,000 mm 0,0 UV-I 0 W/m 2,1 C 2,2 C 3,2 km/h (1 Bft) 96,58 %
06.12.2015 18:55 2,2 C 99 % 1032,1 hPa 0,0 l/m 2,1 km/h (1 Bft) O-SO 113 0 min 0,000 mm 0,0 UV-I 0 W/m 2,1 C 2,2 C 4,8 km/h (1 Bft) 98,31 %
06.12.2015 19:00 2,1 C 99 % 1032,0 hPa 0,0 l/m 1,7 km/h (1 Bft) S-SO 150 0 min 0,000 mm 0,0 UV-I 0 W/m 2,0 C 2,1 C 4,8 km/h (1 Bft) 99,15 %
06.12.2015 19:05 2,2 C 99 % 1032,1 hPa 0,0 l/m 1,9 km/h (1 Bft) S-SO 148 0 min 0,000 mm 0,0 UV-I 0 W/m 2,1 C 2,2 C 6,4 km/h (2 Bft) 99,17 %
06.12.2015 19:10 2,2 C 99 % 1032,0 hPa 0,0 l/m 1,6 km/h (1 Bft) S-SO 168 0 min 0,000 mm 0,0 UV-I 0 W/m 2,1 C 2,2 C 6,4 km/h (2 Bft) 99,11 %
06.12.2015 19:15 2,2 C 99 % 1032,1 hPa 0,0 l/m 1,7 km/h (1 Bft) S-SO 166 0 min 0,000 mm 0,0 UV-I 0 W/m 2,1 C 2,2 C 4,8 km/h (1 Bft) 98,29 %
06.12.2015 19:20 2,1 C 99 % 1032,3 hPa 0,0 l/m 2,7 km/h (1 Bft) W 277 0 min 0,000 mm 0,0 UV-I 0 W/m 2,0 C 2,1 C 6,4 km/h (2 Bft) 99,17 %
06.12.2015 19:25 2,1 C 99 % 1032,3 hPa 0,0 l/m 1,2 km/h (1 Bft) SW 235 0 min 0,000 mm 0,0 UV-I 0 W/m 2,0 C 2,1 C 3,2 km/h (1 Bft) 98,25 %
06.12.2015 19:30 2,1 C 99 % 1032,4 hPa 0,0 l/m 0,9 km/h (0 Bft) S-SO 161 0 min 0,000 mm 0,0 UV-I 0 W/m 2,0 C 2,1 C 3,2 km/h (1 Bft) 97,44 %
06.12.2015 19:35 2,0 C 99 % 1032,5 hPa 0,0 l/m 0,9 km/h (0 Bft) S-SO 161 0 min 0,000 mm 0,0 UV-I 0 W/m 1,9 C 2,0 C 3,2 km/h (1 Bft) 100,00 %
06.12.2015 19:40 2,0 C 99 % 1032,5 hPa 0,0 l/m 1,0 km/h (0 Bft) S 186 0 min 0,000 mm 0,0 UV-I 0 W/m 1,9 C 2,0 C 3,2 km/h (1 Bft) 98,17 %
06.12.2015 19:45 2,1 C 99 % 1032,5 hPa 0,0 l/m 0,6 km/h (0 Bft) S-SW 212 0 min 0,000 mm 0,0 UV-I 0 W/m 2,0 C 2,1 C 3,2 km/h (1 Bft) 98,36 %
06.12.2015 19:50 2,1 C 99 % 1032,5 hPa 0,0 l/m 1,1 km/h (1 Bft) W-SW 248 0 min 0,000 mm 0,0 UV-I 0 W/m 2,0 C 2,1 C 3,2 km/h (1 Bft) 100,00 %
06.12.2015 19:55 1,9 C 99 % 1032,6 hPa 0,0 l/m 1,2 km/h (1 Bft) W-SW 248 0 min 0,000 mm 0,0 UV-I 0 W/m 1,8 C 1,9 C 3,2 km/h (1 Bft) 99,15 %
06.12.2015 20:00 1,9 C 99 % 1032,7 hPa 0,0 l/m 0,5 km/h (0 Bft) W-SW 248 0 min 0,000 mm 0,0 UV-I 0 W/m 1,8 C 1,9 C 3,2 km/h (1 Bft) 99,15 %
06.12.2015 20:05 1,9 C 99 % 1032,6 hPa 0,0 l/m 1,3 km/h (1 Bft) W 269 0 min 0,000 mm 0,0 UV-I 0 W/m 1,8 C 1,9 C 4,8 km/h (1 Bft) 98,35 %
06.12.2015 20:10 1,8 C 99 % 1032,6 hPa 0,0 l/m 2,6 km/h (1 Bft) W 278 0 min 0,000 mm 0,0 UV-I 0 W/m 1,7 C 1,8 C 4,8 km/h (1 Bft) 96,58 %
06.12.2015 20:15 1,8 C 99 % 1032,8 hPa 0,0 l/m 0,8 km/h (0 Bft) W 278 0 min 0,000 mm 0,0 UV-I 0 W/m 1,7 C 1,8 C 3,2 km/h (1 Bft) 95,76 %
06.12.2015 20:20 1,7 C 99 % 1032,7 hPa 0,0 l/m 1,1 km/h (1 Bft) W 278 0 min 0,000 mm 0,0 UV-I 0 W/m 1,6 C 1,7 C 3,2 km/h (1 Bft) 94,64 %
06.12.2015 20:25 1,7 C 99 % 1032,7 hPa 0,0 l/m 2,3 km/h (1 Bft) NW 304 0 min 0,000 mm 0,0 UV-I 0 W/m 1,6 C 1,7 C 4,8 km/h (1 Bft) 95,73 %
06.12.2015 20:30 1,6 C 99 % 1032,7 hPa 0,0 l/m 1,1 km/h (1 Bft) W-NW 290 0 min 0,000 mm 0,0 UV-I 0 W/m 1,5 C 1,6 C 3,2 km/h (1 Bft) 96,61 %
06.12.2015 20:35 1,5 C 99 % 1032,8 hPa 0,0 l/m 3,3 km/h (1 Bft) SW 218 0 min 0,000 mm 0,0 UV-I 0 W/m 1,4 C 1,5 C 6,4 km/h (2 Bft) 95,73 %
06.12.2015 20:40 1,4 C 99 % 1032,7 hPa 0,0 l/m 3,7 km/h (1 Bft) S-SW 207 0 min 0,000 mm 0,0 UV-I 0 W/m 1,3 C 1,4 C 6,4 km/h (2 Bft) 96,61 %
06.12.2015 20:45 1,3 C 99 % 1032,7 hPa 0,0 l/m 1,1 km/h (1 Bft) S-SW 197 0 min 0,000 mm 0,0 UV-I 0 W/m 1,2 C 1,3 C 3,2 km/h (1 Bft) 98,31 %
06.12.2015 20:50 1,2 C 99 % 1032,8 hPa 0,0 l/m 1,7 km/h (1 Bft) S-SO 148 0 min 0,000 mm 0,0 UV-I 0 W/m 1,1 C 1,2 C 4,8 km/h (1 Bft) 96,58 %
06.12.2015 20:55 1,2 C 99 % 1032,9 hPa 0,0 l/m 2,1 km/h (1 Bft) S 178 0 min 0,000 mm 0,0 UV-I 0 W/m 1,1 C 1,2 C 4,8 km/h (1 Bft) 98,35 %
06.12.2015 21:00 1,2 C 99 % 1033,0 hPa 0,0 l/m 1,0 km/h (0 Bft) S 178 0 min 0,000 mm 0,0 UV-I 0 W/m 1,1 C 1,2 C 3,2 km/h (1 Bft) 99,15 %
06.12.2015 21:05 1,1 C 99 % 1033,0 hPa 0,0 l/m 1,2 km/h (1 Bft) S 178 0 min 0,000 mm 0,0 UV-I 0 W/m 1,0 C 1,1 C 3,2 km/h (1 Bft) 98,31 %
06.12.2015 21:10 0,9 C 99 % 1033,1 hPa 0,0 l/m 1,0 km/h (0 Bft) S 178 0 min 0,000 mm 0,0 UV-I 0 W/m 0,8 C 0,9 C 3,2 km/h (1 Bft) 99,08 %
06.12.2015 21:15 0,8 C 99 % 1033,2 hPa 0,0 l/m 0,0 km/h (0 Bft) S 178 0 min 0,000 mm 0,0 UV-I 0 W/m 0,7 C 0,8 C 0,0 km/h (0 Bft) 98,29 %
06.12.2015 21:20 0,8 C 99 % 1033,2 hPa 0,0 l/m 0,0 km/h (0 Bft) S 178 0 min 0,000 mm 0,0 UV-I 0 W/m 0,7 C 0,8 C 0,0 km/h (0 Bft) 99,15 %
06.12.2015 21:25 0,8 C 99 % 1033,2 hPa 0,0 l/m 0,0 km/h (0 Bft) S 178 0 min 0,000 mm 0,0 UV-I 0 W/m 0,7 C 0,8 C 0,0 km/h (0 Bft) 99,15 %
06.12.2015 21:30 0,7 C 99 % 1033,3 hPa 0,0 l/m 0,0 km/h (0 Bft) S 178 0 min 0,000 mm 0,0 UV-I 0 W/m 0,6 C 0,7 C 0,0 km/h (0 Bft) 98,29 %
06.12.2015 21:35 0,7 C 99 % 1033,4 hPa 0,0 l/m 0,1 km/h (0 Bft) S 178 0 min 0,000 mm 0,0 UV-I 0 W/m 0,6 C 0,7 C 1,6 km/h (1 Bft) 98,31 %
06.12.2015 21:40 0,7 C 99 % 1033,5 hPa 0,0 l/m 0,3 km/h (0 Bft) S 178 0 min 0,000 mm 0,0 UV-I 0 W/m 0,6 C 0,7 C 1,6 km/h (1 Bft) 98,31 %
06.12.2015 21:45 0,7 C 99 % 1033,5 hPa 0,0 l/m 0,1 km/h (0 Bft) S 178 0 min 0,000 mm 0,0 UV-I 0 W/m 0,6 C 0,7 C 1,6 km/h (1 Bft) 99,17 %
06.12.2015 21:50 0,7 C 99 % 1033,5 hPa 0,0 l/m 0,2 km/h (0 Bft) S 178 0 min 0,000 mm 0,0 UV-I 0 W/m 0,6 C 0,7 C 1,6 km/h (1 Bft) 98,31 %
06.12.2015 21:55 0,7 C 99 % 1033,6 hPa 0,0 l/m 1,6 km/h (1 Bft) W 263 0 min 0,000 mm 0,0 UV-I 0 W/m 0,6 C 0,7 C 3,2 km/h (1 Bft) 100,00 %
06.12.2015 22:00 0,7 C 99 % 1033,6 hPa 0,0 l/m 0,4 km/h (0 Bft) W 263 0 min 0,000 mm 0,0 UV-I 0 W/m 0,6 C 0,7 C 3,2 km/h (1 Bft) 99,15 %
06.12.2015 22:05 0,7 C 99 % 1033,5 hPa 0,0 l/m 0,2 km/h (0 Bft) W 263 0 min 0,000 mm 0,0 UV-I 0 W/m 0,6 C 0,7 C 1,6 km/h (1 Bft) 100,00 %
06.12.2015 22:10 0,6 C 99 % 1033,6 hPa 0,0 l/m 0,0 km/h (0 Bft) W 263 0 min 0,000 mm 0,0 UV-I 0 W/m 0,5 C 0,6 C 1,6 km/h (1 Bft) 96,58 %
06.12.2015 22:15 0,6 C 99 % 1033,7 hPa 0,0 l/m 0,0 km/h (0 Bft) W 263 0 min 0,000 mm 0,0 UV-I 0 W/m 0,5 C 0,6 C 1,6 km/h (1 Bft) 96,61 %
06.12.2015 22:20 0,6 C 99 % 1033,7 hPa 0,0 l/m 0,1 km/h (0 Bft) W 263 0 min 0,000 mm 0,0 UV-I 0 W/m 0,5 C 0,6 C 1,6 km/h (1 Bft) 95,73 %
06.12.2015 22:25 0,6 C 99 % 1033,8 hPa 0,0 l/m 0,0 km/h (0 Bft) W 263 0 min 0,000 mm 0,0 UV-I 0 W/m 0,5 C 0,6 C 0,0 km/h (0 Bft) 97,46 %
06.12.2015 22:30 0,6 C 99 % 1033,8 hPa 0,0 l/m 0,2 km/h (0 Bft) W-NW 296 0 min 0,000 mm 0,0 UV-I 0 W/m 0,5 C 0,6 C 1,6 km/h (1 Bft) 95,28 %
06.12.2015 22:35 0,4 C 99 % 1033,9 hPa 0,0 l/m 0,1 km/h (0 Bft) W-NW 292 0 min 0,000 mm 0,0 UV-I 0 W/m 0,3 C 0,4 C 1,6 km/h (1 Bft) 94,26 %
06.12.2015 22:40 0,4 C 99 % 1033,9 hPa 0,0 l/m 0,0 km/h (0 Bft) W-NW 291 0 min 0,000 mm 0,0 UV-I 0 W/m 0,3 C 0,4 C 0,0 km/h (0 Bft) 96,61 %
06.12.2015 22:45 0,3 C 99 % 1034,0 hPa 0,0 l/m 0,0 km/h (0 Bft) W-NW 292 0 min 0,000 mm 0,0 UV-I 0 W/m 0,2 C 0,3 C 1,6 km/h (1 Bft) 98,31 %
06.12.2015 22:50 0,3 C 99 % 1034,1 hPa 0,0 l/m 0,0 km/h (0 Bft) W-NW 291 0 min 0,000 mm 0,0 UV-I 0 W/m 0,2 C 0,3 C 0,0 km/h (0 Bft) 97,44 %
06.12.2015 22:55 0,3 C 99 % 1034,1 hPa 0,0 l/m 0,5 km/h (0 Bft) W-NW 292 0 min 0,000 mm 0,0 UV-I 0 W/m 0,2 C 0,3 C 1,6 km/h (1 Bft) 98,31 %
06.12.2015 23:00 0,3 C 99 % 1034,1 hPa 0,0 l/m 0,3 km/h (0 Bft) W-NW 292 0 min 0,000 mm 0,0 UV-I 0 W/m 0,2 C 0,3 C 1,6 km/h (1 Bft) 98,29 %
06.12.2015 23:05 0,2 C 99 % 1034,0 hPa 0,0 l/m 0,2 km/h (0 Bft) W-NW 291 0 min 0,000 mm 0,0 UV-I 0 W/m 0,1 C 0,2 C 1,6 km/h (1 Bft) 99,17 %
06.12.2015 23:10 0,2 C 99 % 1034,3 hPa 0,0 l/m 1,2 km/h (1 Bft) SW 224 0 min 0,000 mm 0,0 UV-I 0 W/m 0,1 C 0,2 C 4,8 km/h (1 Bft) 98,11 %
06.12.2015 23:15 0,2 C 99 % 1034,3 hPa 0,0 l/m 1,3 km/h (1 Bft) S 188 0 min 0,000 mm 0,0 UV-I 0 W/m 0,1 C 0,2 C 3,2 km/h (1 Bft) 99,15 %
06.12.2015 23:20 0,1 C 99 % 1034,3 hPa 0,0 l/m 0,7 km/h (0 Bft) S 188 0 min 0,000 mm 0,0 UV-I 0 W/m -0,0 C 0,1 C 3,2 km/h (1 Bft) 100,00 %
06.12.2015 23:25 0,1 C 99 % 1034,4 hPa 0,0 l/m 0,1 km/h (0 Bft) S 188 0 min 0,000 mm 0,0 UV-I 0 W/m -0,0 C 0,1 C 1,6 km/h (1 Bft) 99,15 %
06.12.2015 23:30 0,1 C 99 % 1034,5 hPa 0,0 l/m 0,0 km/h (0 Bft) S 188 0 min 0,000 mm 0,0 UV-I 0 W/m -0,0 C 0,1 C 1,6 km/h (1 Bft) 99,15 %
06.12.2015 23:35 0,1 C 99 % 1034,4 hPa 0,0 l/m 0,4 km/h (0 Bft) S 188 0 min 0,000 mm 0,0 UV-I 0 W/m -0,0 C 0,1 C 1,6 km/h (1 Bft) 99,19 %
06.12.2015 23:40 0,0 C 99 % 1034,4 hPa 0,0 l/m 0,8 km/h (0 Bft) S 186 0 min 0,000 mm 0,0 UV-I 0 W/m -0,1 C 0,0 C 3,2 km/h (1 Bft) 99,06 %
06.12.2015 23:45 -0,1 C 99 % 1034,5 hPa 0,0 l/m 0,9 km/h (0 Bft) S 186 0 min 0,000 mm 0,0 UV-I 0 W/m -0,2 C -0,1 C 3,2 km/h (1 Bft) 99,19 %
06.12.2015 23:50 -0,1 C 99 % 1034,5 hPa 0,0 l/m 0,5 km/h (0 Bft) S 186 0 min 0,000 mm 0,0 UV-I 0 W/m -0,2 C -0,1 C 1,6 km/h (1 Bft) 100,00 %
06.12.2015 23:55 -0,1 C 99 % 1034,5 hPa 0,0 l/m 0,6 km/h (0 Bft) SW 217 0 min 0,000 mm 0,0 UV-I 0 W/m -0,2 C -0,1 C 1,6 km/h (1 Bft) 97,50 %
_ Min-Zeit 05:30 00:00 00:00 - 00:00 - - - - - - 05:30 05:30 00:00 09:15
Minimum _ -0,2 C 98 % 1030,3 hPa - 0,0 km/h (0 Bft) - - - - - - -0,5 C -0,2 C 0,0 km/h (0 Bft) 44,44 %
_ Max-Zeit 14:15 03:00 23:30 00:00 14:35 - - 00:00 12:00 11:40 11:45 14:30 14:30 07:55 00:40
Maximum _ 3,1 C 99 % 1034,5 hPa 0,0 l/m 5,4 km/h
O-SO (1 Bft)
- - 0 min 0,051 mm 0,6 UV-I 164 W/m 2,9 C 3,0 C 9,7 km/h
O (2 Bft)
100,00 %
Durchschnitt _ 1,5 C 99 % 1031,7 hPa #0,0 l/m 1,7 km/h (1 Bft) S-SO - #0 min. #0,203 mm 0,4 UV-I 74 W/m 1,3 C 1,5 C 4,1 km/h (1 Bft) 95,31 %